INTEGRAL

Last updated on Nov. 15, 2019, 4:21 a.m. UTC

1 27540U 02048A   19316.40702749  .00000623  00000-0  00000+0 0  9995
2 27540  51.1580 132.0813 8871056 283.8996   3.0148  0.37582491 17573
UTC
Height (km)
Latitude
Longitude
Inclination
Orbital Period
UTC large
Height (km)
Speed (km/s)
/
Latitude / Longitude
Inclination (degrees)
Orbital Period (minutes)
Azimuth
Elevation
Range (km)
Doppler Factor
iOS Compass Heading
iOS Angle

Next 30 passes for location: Hong Kong

Rise time Rise Azimuth (degrees) Set time Set Azimuth (degrees) Duration Max altitude (degrees)

No matching passes for this satellites